Location: Saint-Usage
(47.1052°N, 5.2587°E)
Time: 04:23:24
(UTC+01:00)

BUGSAT 1 - Visible Passes

Search period start: 29 November 2021 00:00
Search period end: 09 December 2021 00:00
Orbit: 558 x 601 km, 98.1° (Epoch: 28 November)

Date Brightness Start Highest point End Pass type
(mag) Time Alt. Az. Time Alt. Az. Time Alt. Az.
29 Nov ? 05:51:37 10° NNE 05:55:52 90° S 06:00:05 10° SSW visible
30 Nov ? 04:23:46 10° ENE 04:24:47 11° E 04:25:47 10° ESE visible
30 Nov ? 05:56:21 10° NNE 06:00:35 81° WNW 06:04:48 10° SSW visible
01 Dec ? 04:27:54 10° ENE 04:29:34 12° E 04:31:14 10° ESE visible
01 Dec ? 06:01:06 10° N 06:05:19 73° WNW 06:09:32 10° SSW visible
02 Dec ? 04:32:15 10° ENE 04:34:22 13° E 04:36:28 10° ESE visible
02 Dec ? 06:05:51 10° N 06:10:02 65° WNW 06:14:14 10° SSW visible
03 Dec ? 04:36:41 10° NE 04:39:08 15° E 04:41:35 10° SE visible
03 Dec ? 06:10:36 10° N 06:14:45 59° WNW 06:18:55 10° SSW visible
04 Dec ? 04:41:11 10° NE 04:43:55 17° E 04:46:38 10° SE visible
04 Dec ? 06:15:21 10° N 06:19:28 52° WNW 06:23:35 10° SSW visible
05 Dec ? 04:45:43 10° NE 04:48:41 18° E 04:51:38 10° SE visible
05 Dec ? 06:20:07 10° N 06:24:11 47° WNW 06:28:15 10° SW visible
06 Dec ? 04:50:16 10° NE 04:53:27 20° E 04:56:37 10° SE visible
06 Dec ? 06:24:53 10° N 06:28:53 42° WNW 06:32:54 10° SW visible
06 Dec ? 17:16:40 10° SSW 17:20:30 39° W 17:24:25 10° NNW visible
07 Dec ? 04:54:51 10° NE 04:58:12 22° E 05:01:33 10° SE visible
07 Dec ? 06:29:39 10° N 06:33:36 38° WNW 06:37:31 10° SW visible
07 Dec ? 17:21:29 10° SSW 17:25:15 35° W 17:29:04 10° NNW visible
08 Dec ? 04:59:27 10° NE 05:02:58 25° E 05:06:27 10° SSE visible
08 Dec ? 06:34:25 10° N 06:38:18 35° WNW 06:42:08 10° SW visible
08 Dec ? 17:26:19 10° SSW 17:29:59 32° W 17:33:44 10° NNW visible
